WB7TUJ Weather Reports


Display with metric or nautical units.
time (UTC)temp
F
wind
direction
speed
MPH
gust
MPH
rain 1hr
in
rain 24hr
in
rain mn
in
humidity
%
barometer
mb
20260507003003 82 207 0.0 8.0 0.00 0.00 0.00 24 967.2
20260507001501 83 236 2.0 12.0 0.00 0.00 0.00 24 967.2
20260506234603 82 193 3.0 9.0 0.00 0.00 0.00 24 967.2
20260506233056 82 264 2.0 11.0 0.00 0.00 0.00 24 967.3
20260506231555 82 205 3.0 10.0 0.00 0.00 0.00 25 967.4
20260506230054 82 285 0.0 12.0 0.00 0.00 0.00 25 967.7
20260506224552 83 314 0.0 2.0 0.00 0.00 0.00 24 967.8
20260506223048 81 191 0.0 0.0 0.00 0.00 0.00 24 968.0
20260506221546 81 270 0.0 6.0 0.00 0.00 0.00 25 968.1
20260506220057 81 265 4.0 10.0 0.00 0.00 0.00 25 968.4
20260506214547 82 287 3.0 12.0 0.00 0.00 0.00 25 968.5
20260506213044 81 301 0.0 9.0 0.00 0.00 0.00 25 968.8
20260506211541 80 220 0.0 0.0 0.00 0.00 0.00 26 969.0
20260506210039 79 213 0.0 13.0 0.00 0.00 0.00 27 969.2
20260506204539 80 276 3.0 11.0 0.00 0.00 0.00 26 969.5
20260506203101 79 297 0.0 0.0 0.00 0.00 0.00 27 969.6
20260506201535 78 263 1.0 13.0 0.00 0.00 0.00 27 969.7
20260506200044 78 355 1.0 9.0 0.00 0.00 0.00 27 969.9
20260506194530 77 202 0.0 11.0 0.00 0.00 0.00 29 970.0
20260506193028 77 275 4.0 12.0 0.00 0.00 0.00 28 970.2
20260506191527 76 103 0.0 9.0 0.00 0.00 0.00 29 970.3
20260506190034 77 209 3.0 11.0 0.00 0.00 0.00 30 970.5
20260506184526 75 209 0.0 12.0 0.00 0.00 0.00 30 970.7
20260506183025 76 284 0.0 0.0 0.00 0.00 0.00 31 971.0
20260506181524 75 283 0.0 1.0 0.00 0.00 0.00 31 971.1
20260506180021 74 189 0.0 11.0 0.00 0.00 0.00 33 971.1
20260506174521 74 263 1.0 4.0 0.00 0.00 0.00 33 971.3
20260506173019 74 173 0.0 0.0 0.00 0.00 0.00 33 971.3
20260506171518 72 171 0.0 0.0 0.00 0.00 0.00 35 971.2
20260506170021 72 161 0.0 0.0 0.00 0.00 0.00 35 971.2
20260506164516 72 130 0.0 0.0 0.00 0.00 0.00 35 971.2
20260506163031 71 126 0.0 0.0 0.00 0.00 0.00 36 971.2
20260506161515 71 125 0.0 0.0 0.00 0.00 0.00 36 971.1
20260506160010 69 123 0.0 0.0 0.00 0.00 0.00 37 971.2
20260506154526 69 123 0.0 0.0 0.00 0.00 0.00 38 971.3
20260506153006 68 133 0.0 0.0 0.00 0.00 0.00 39 971.3
20260506151506 69 132 0.0 0.0 0.00 0.00 0.00 39 971.3
20260506150006 67 132 0.0 0.0 0.00 0.00 0.00 42 971.3
20260506144604 65 132 0.0 0.0 0.00 0.00 0.00 43 971.2
20260506143059 64 132 0.0 0.0 0.00 0.00 0.00 45 971.0
20260506141556 63 132 0.0 0.0 0.00 0.00 0.00 46 970.8
20260506140057 62 133 0.0 0.0 0.00 0.00 0.00 46 970.7
20260506134554 61 254 0.0 0.0 0.00 0.00 0.00 47 970.5
20260506133052 61 254 0.0 0.0 0.00 0.00 0.00 48 970.5
20260506131551 60 254 0.0 0.0 0.00 0.00 0.00 49 970.2
20260506130048 59 254 0.0 0.0 0.00 0.00 0.00 51 970.2
20260506124548 59 254 0.0 0.0 0.00 0.00 0.00 51 970.0
20260506123048 59 254 0.0 0.0 0.00 0.00 0.00 50 969.7
20260506121642 60 254 0.0 0.0 0.00 0.00 0.00 49 969.6
20260506120041 60 254 0.0 0.0 0.00 0.00 0.00 47 969.5
20260506114541 61 254 0.0 0.0 0.00 0.00 0.00 46 969.5
20260506113037 60 254 0.0 0.0 0.00 0.00 0.00 47 969.5
20260506111535 60 254 0.0 0.0 0.00 0.00 0.00 47 969.4
20260506110034 61 254 0.0 0.0 0.00 0.00 0.00 46 969.4
20260506104530 62 254 0.0 0.0 0.00 0.00 0.00 46 969.3
20260506103029 62 254 0.0 0.0 0.00 0.00 0.00 46 969.0
20260506101638 62 254 0.0 0.0 0.00 0.00 0.00 44 969.0
20260506100023 64 254 0.0 0.0 0.00 0.00 0.00 43 968.9
20260506094520 64 254 0.0 0.0 0.00 0.00 0.00 42 968.8
20260506093018 64 254 0.0 0.0 0.00 0.00 0.00 42 968.7
20260506091516 64 254 0.0 0.0 0.00 0.00 0.00 42 968.7
20260506090013 65 254 0.0 0.0 0.00 0.00 0.00 41 968.6
20260506084512 65 254 0.0 0.0 0.00 0.00 0.00 40 968.6
20260506083016 65 254 0.0 0.0 0.00 0.00 0.00 40 968.6
20260506081619 66 254 0.0 0.0 0.00 0.00 0.00 39 968.5
20260506073006 65 254 0.0 0.0 0.00 0.00 0.00 39 968.5
20260506071601 65 254 0.0 0.0 0.00 0.00 0.00 38 968.4
20260506061555 68 254 0.0 0.0 0.00 0.00 0.00 35 968.0
20260506050109 70 252 0.0 0.0 0.00 0.00 0.00 33 967.6
20260506044550 70 247 0.0 0.0 0.00 0.00 0.00 32 967.4
20260506043050 70 265 0.0 9.0 0.00 0.00 0.00 32 967.3
20260506041600 70 264 0.0 9.0 0.00 0.00 0.00 32 967.1
20260506040049 71 264 0.0 9.0 0.00 0.00 0.00 32 966.9
20260506034553 71 261 0.0 12.0 0.00 0.00 0.00 31 966.9
20260506033048 71 249 5.0 14.0 0.00 0.00 0.00 31 966.7
20260506031548 72 266 3.0 13.0 0.00 0.00 0.00 30 966.4
20260506030048 72 249 9.0 14.0 0.00 0.00 0.00 29 966.2
20260506024547 72 272 8.0 15.0 0.00 0.00 0.00 29 965.9
20260506023100 72 295 6.0 15.0 0.00 0.00 0.00 30 965.8
20260506021546 73 273 9.0 15.0 0.00 0.00 0.00 30 965.5
20260506020051 73 273 7.0 20.0 0.00 0.00 0.00 29 965.3
20260506014544 74 268 3.0 13.0 0.00 0.00 0.00 29 965.2
20260506013052 74 259 9.0 14.0 0.00 0.00 0.00 29 965.1
20260506011546 75 284 7.0 16.0 0.00 0.00 0.00 29 965.0
20260506010043 75 212 4.0 17.0 0.00 0.00 0.00 30 964.9
20260506004542 75 285 7.0 14.0 0.00 0.00 0.00 29 964.8